Voltar ao catálogo

DELTA 1 DEB

AtivoPO
NORAD 8968·DEBRIS·🇺🇸 United States

Lançado Jan 22, 1975 de Vandenberg Space Force Base

Loading…

Próximas Passagens (próximas 24 horas)

TLE

AtualizadoSource: Space-Track

Época: Sep 14, 2026, 06:42 UTC

1 08968U 75004BA  26257.27979180  .00000249  00000-0  10442-3 0  9991
2 08968  97.6617 208.5136 0130321 183.5667 176.4601 14.28393797621096

Acompanhe DELTA 1 DEB em tempo real com AllMySat

Download on the App Store